Content
SEND FEEDBACK

Daily
Averages
Monthly
Summary
United States of America

SPRINGFIELD, MISSOURI


Home > North America > United States > Missouri
Elevation: 1268 feet     Latitude: 37 14N     Longitude: 093 23W

WEATHER
 
SELECT A DAY
Number of Records: 205,362;   Date Range: 1/1/95 - 8/12/14
 
SHARE

PRINT THIS DATA

[ ← Previous Day ]
WEATHER ALMANAC - JANUARY 31, 2013
[ Next Day → ]
[ °C ]   °F
Weather ElementAverageHighLow
Temperature24.2 °F37 °F (11:52 am)10.9 °F (11:52 pm)
Dewpoint16.7 °F26.1 °F (1:32 pm)1.9 °F (10:52 pm)
Humidity73.3 %88 % (2:19 pm)59 % (11:52 am)
Barometer30.18 in30.46 in (11:52 pm)29.99 in (1:11 am)
Wind Speed11.8 mph24.2 mph (3:42 pm)
Wind Gust31.1 mph (3:42 pm)
Weather ElementAverage
Visibility8.1 mi
Wind DirectionWNW (278 °)

Weather ElementTotal
Precipitation0.03 in
Heating Degree Days41.1 (Base 65)
Averaged from 30 records on January 31, 2013
WEATHER CONDITIONS BREAKOUT
WIND DIRECTION BREAKOUT
WEATHER BY HOUR - JANUARY 31, 2013
[ °C ]   °F
Local TimeTemperatureDewpointHumidityBarometerVisibilityWind DirectionWind SpeedGust SpeedPrecipitationEventsConditions
1:11 AM26.1 °F18.0 °F71 %29.99 in10.0 miWest (270°)6.9 mphScattered Clouds
1:52 AM23.0 °F17.1 °F78 %30.02 in10.0 miSW (230°)4.6 mphClear
2:52 AM21.9 °F17.1 °F82 %30.02 in10.0 miSW (230°)6.9 mphClear
3:52 AM21.0 °F17.1 °F85 %30.01 in10.0 miSSW (210°)6.9 mphClear
4:52 AM21.0 °F17.1 °F85 %30.02 in10.0 miCalmClear
5:52 AM19.9 °F16.0 °F85 %30.03 in10.0 miSSW (200°)6.9 mphClear
6:52 AM21.9 °F18.0 °F85 %30.01 in10.0 miSouth (180°)6.9 mphScattered Clouds
7:52 AM23.0 °F19.0 °F85 %30.02 in10.0 miSSE (150°)4.6 mphClear
8:52 AM27.0 °F21.0 °F78 %30.06 in10.0 miSW (220°)3.5 mphMostly Cloudy
9:52 AM34.0 °F23.0 °F64 %30.07 in10.0 miWNW (290°)16.1 mph23.0 mphPartly Cloudy
10:52 AM36.0 °F24.1 °F62 %30.09 in10.0 miWNW (290°)10.4 mphClear
11:52 AM37.0 °F24.1 °F59 %30.11 in10.0 miWNW (300°)11.5 mphMostly Cloudy
12:52 PM37.0 °F24.1 °F59 %30.14 in10.0 miNW (320°)15.0 mphOvercast
1:14 PM34.0 °F25.0 °F70 %30.12 in2.5 miNNW (330°)18.4 mph0.00 inSnowLight Snow
1:32 PM32.0 °F26.1 °F79 %30.13 in2.5 miNW (310°)16.1 mph24.2 mph0.00 inSnowLight Snow
2:19 PM28.0 °F25.0 °F88 %30.16 in1.0 miNW (320°)19.6 mph27.6 mph0.00 inSnowLight Snow
2:52 PM26.1 °F21.9 °F84 %30.22 in2.0 miNNW (330°)19.6 mph26.5 mph0.00 inSnowLight Snow
3:00 PM26.1 °F21.9 °F84 %30.18 in1.0 miNW (320°)16.1 mph28.8 mph0.00 inSnowLight Snow
3:24 PM26.1 °F21.9 °F84 %30.17 in3.0 miNW (320°)17.3 mph27.6 mph0.01 inSnowLight Snow
3:42 PM25.0 °F19.0 °F78 %30.18 in5.0 miNNW (330°)24.2 mph31.1 mph0.01 inSnowLight Snow
3:52 PM25.0 °F17.1 °F72 %30.25 in7.0 miNW (320°)18.4 mph0.01 inSnowLight Snow
4:52 PM24.1 °F14.0 °F65 %30.27 in10.0 miNW (310°)15.0 mph0.00 inMostly Cloudy
5:52 PM21.0 °F10.9 °F65 %30.31 in10.0 miNW (320°)10.4 mphClear
6:52 PM19.9 °F9.0 °F62 %30.34 in10.0 miNW (310°)9.2 mphClear
7:52 PM19.0 °F8.1 °F62 %30.38 in10.0 miNW (310°)6.9 mphClear
8:52 PM18.0 °F8.1 °F65 %30.42 in10.0 miNW (320°)13.8 mphClear
9:15 PM16.0 °F6.1 °F65 %30.38 in10.0 miNNW (330°)15.0 mphClear
9:52 PM14.0 °F5.0 °F67 %30.44 in10.0 miNNW (330°)15.0 mphClear
10:52 PM12.9 °F1.9 °F62 %30.45 in10.0 miNW (320°)11.5 mphClear
11:52 PM10.9 °F3.0 °F70 %30.46 in10.0 miNW (320°)6.9 mphClear
Hourly data recorded from KSGF, located miles away from Springfield, Missouri







STORIES FROM OUR PARTNERS